G7NPW-1 Weather Reports


Display with metric or nautical units.
time (UTC)temp
F
wind
direction
speed
MPH
gust
MPH
rain 1hr
in
rain 24hr
in
rain mn
in
humidity
%
barometer
mb
20260508060006 54 120 6.0 6.0 0.00 0.00 0.00 66 1014.9
20260507210004 54 120 6.0 8.0 0.00 0.00 0.00 66 1014.9
20260507205007 55 110 8.0 8.0 0.00 0.00 0.00 58 1014.9
20260507204007 55 110 8.0 8.0 0.00 0.00 0.00 58 1014.9
20260507201007 55 110 8.0 8.0 0.00 0.00 0.00 58 1014.9
20260507200004 55 110 8.0 9.0 0.00 0.00 0.00 58 1014.9
20260507195505 57 120 9.0 9.0 0.00 0.00 0.00 50 1014.9
20260507194007 57 120 9.0 9.0 0.00 0.00 0.00 50 1014.9
20260507193504 57 120 9.0 9.0 0.00 0.00 0.00 50 1014.9
20260507193007 57 120 9.0 9.0 0.00 0.00 0.00 50 1014.9
20260507192503 57 120 9.0 9.0 0.00 0.00 0.00 50 1014.9
20260507191007 57 120 9.0 9.0 0.00 0.00 0.00 50 1014.9
20260507190504 57 120 9.0 10.0 0.00 0.00 0.00 50 1014.9
20260507185504 57 110 10.0 10.0 0.00 0.00 0.00 47 1013.9
20260507185008 57 110 10.0 10.0 0.00 0.00 0.00 47 1013.9
20260507184504 57 110 10.0 10.0 0.00 0.00 0.00 47 1013.9
20260507184007 57 110 10.0 10.0 0.00 0.00 0.00 47 1013.9
20260507182007 57 110 10.0 10.0 0.00 0.00 0.00 47 1013.9
20260507181505 57 110 10.0 10.0 0.00 0.00 0.00 47 1013.9
20260507181008 57 110 10.0 10.0 0.00 0.00 0.00 47 1013.9
20260507180504 57 110 10.0 10.0 0.00 0.00 0.00 47 1013.9
20260507180004 57 110 10.0 10.0 0.00 0.00 0.00 47 1013.9
20260507175007 57 120 9.0 9.0 0.00 0.00 0.00 44 1013.9
20260507174007 57 120 9.0 9.0 0.00 0.00 0.00 44 1013.9
20260507173503 57 120 9.0 9.0 0.00 0.00 0.00 44 1013.9
20260507172504 57 120 9.0 9.0 0.00 0.00 0.00 44 1013.9
20260507170004 57 120 9.0 10.0 0.00 0.00 0.00 44 1013.9
20260507165503 57 120 10.0 10.0 0.00 0.00 0.00 47 1013.9
20260507164007 57 120 10.0 10.0 0.00 0.00 0.00 47 1013.9
20260507161504 57 120 10.0 10.0 0.00 0.00 0.00 47 1013.9
20260507160505 57 120 10.0 10.0 0.00 0.00 0.00 47 1013.9
20260507160004 57 120 10.0 10.0 0.00 0.00 0.00 47 1013.9
20260507155504 59 130 8.0 8.0 0.00 0.00 0.00 41 1014.9
20260507155007 59 130 8.0 8.0 0.00 0.00 0.00 41 1014.9
20260507154504 59 130 8.0 8.0 0.00 0.00 0.00 41 1014.9
20260507153505 59 130 8.0 8.0 0.00 0.00 0.00 41 1014.9
20260507153007 59 130 8.0 8.0 0.00 0.00 0.00 41 1014.9
20260507152505 59 130 8.0 8.0 0.00 0.00 0.00 41 1014.9
20260507152007 59 130 8.0 8.0 0.00 0.00 0.00 41 1014.9
20260507151504 59 130 8.0 8.0 0.00 0.00 0.00 41 1014.9
20260507150505 59 130 8.0 8.0 0.00 0.00 0.00 41 1014.9
20260507150005 59 130 8.0 8.0 0.00 0.00 0.00 41 1014.9
20260507144007 57 130 8.0 8.0 0.00 0.00 0.00 44 1014.9
20260507143503 57 130 8.0 8.0 0.00 0.00 0.00 44 1014.9
20260507142007 57 130 8.0 8.0 0.00 0.00 0.00 44 1014.9
20260507141504 57 130 8.0 8.0 0.00 0.00 0.00 44 1014.9
20260507140504 57 130 8.0 8.0 0.00 0.00 0.00 44 1014.9
20260507134504 57 140 7.0 7.0 0.00 0.00 0.00 47 1014.9
20260507133007 57 140 7.0 7.0 0.00 0.00 0.00 47 1014.9
20260507132007 57 140 7.0 7.0 0.00 0.00 0.00 47 1014.9
20260507131504 57 140 7.0 7.0 0.00 0.00 0.00 47 1014.9
20260507125008 59 160 10.0 10.0 0.00 0.00 0.00 44 1015.9
20260507124504 59 160 10.0 10.0 0.00 0.00 0.00 44 1015.9
20260507123008 59 160 10.0 10.0 0.00 0.00 0.00 44 1015.9
20260507122503 59 160 10.0 10.0 0.00 0.00 0.00 44 1015.9
20260507114504 57 160 7.0 7.0 0.00 0.00 0.00 54 1015.9
20260507114008 57 160 7.0 7.0 0.00 0.00 0.00 54 1015.9
20260507113503 57 160 7.0 7.0 0.00 0.00 0.00 54 1015.9
20260507112504 57 160 7.0 7.0 0.00 0.00 0.00 54 1015.9
20260507112007 57 160 7.0 7.0 0.00 0.00 0.00 54 1015.9
20260507110505 57 160 7.0 7.0 0.00 0.00 0.00 54 1015.9
20260507110004 57 160 7.0 7.0 0.00 0.00 0.00 54 1015.9
20260507105007 54 160 7.0 7.0 0.00 0.00 0.00 57 1015.9
20260507102504 54 160 7.0 7.0 0.00 0.00 0.00 57 1015.9
20260507100005 54 160 7.0 7.0 0.00 0.00 0.00 57 1015.9
20260507095007 50 140 7.0 7.0 0.00 0.00 0.00 76 1015.9
20260507094503 50 140 7.0 7.0 0.00 0.00 0.00 76 1015.9
20260507094007 50 140 7.0 7.0 0.00 0.00 0.00 76 1015.9
20260507093008 50 140 7.0 7.0 0.00 0.00 0.00 76 1015.9
20260507092504 50 140 7.0 7.0 0.00 0.00 0.00 76 1015.9
20260507091007 50 140 7.0 7.0 0.00 0.00 0.00 76 1015.9
20260507085006 46 180 6.0 6.0 0.00 0.00 0.00 81 1015.9
20260507084007 46 180 6.0 6.0 0.00 0.00 0.00 81 1015.9
20260507083504 46 180 6.0 6.0 0.00 0.00 0.00 81 1015.9
20260507083007 46 180 6.0 6.0 0.00 0.00 0.00 81 1015.9
20260507081504 46 180 6.0 6.0 0.00 0.00 0.00 81 1015.9
20260507075007 45 80 10.0 10.0 0.00 0.00 0.00 87 1015.9
20260507074008 45 80 10.0 10.0 0.00 0.00 0.00 87 1015.9
20260507073505 45 80 10.0 10.0 0.00 0.00 0.00 87 1015.9
20260507072008 45 80 10.0 10.0 0.00 0.00 0.00 87 1015.9
20260507071504 45 80 10.0 10.0 0.00 0.00 0.00 87 1015.9
20260507071008 45 80 10.0 10.0 0.00 0.00 0.00 87 1015.9
20260507065008 43 80 10.0 10.0 0.00 0.00 0.00 86 1014.9
20260507063504 43 80 10.0 10.0 0.00 0.00 0.00 86 1014.9
20260507062503 43 80 10.0 10.0 0.00 0.00 0.00 86 1014.9
20260507061504 43 80 10.0 10.0 0.00 0.00 0.00 86 1014.9
20260507061008 43 80 10.0 10.0 0.00 0.00 0.00 86 1014.9